AEST,Max TemperatureF,Mean TemperatureF,Min TemperatureF,Max Dew PointF,MeanDew PointF,Min DewpointF,Max Humidity, Mean Humidity, Min Humidity, Max Sea Level PressureIn, Mean Sea Level PressureIn, Min Sea Level PressureIn, Max VisibilityMiles, Mean VisibilityMiles, Min VisibilityMiles, Max Wind SpeedMPH, Mean Wind SpeedMPH, Max Gust SpeedMPH,PrecipitationIn, CloudCover, Events, WindDirDegrees
2013-5-1,85,80,75,75,70,66,89,72,53,29.96,29.90,29.86,19,7,5,24,18,33,0.02,6,Rain,150
2013-5-2,82,76,71,73,70,68,100,83,58,30.01,29.94,29.89,19,6,3,22,13,,0.28,6,Rain,159
2013-5-3,81,76,71,72,70,68,100,83,60,30.06,30.00,29.95,16,6,3,20,12,24,0.08,6,Rain,163
2013-5-4,83,76,69,72,69,66,94,81,56,30.10,30.03,29.98,19,7,2,21,13,,0.63,5,Rain,173
2013-5-5,82,76,69,70,66,64,94,73,49,30.04,29.98,29.92,19,7,3,18,11,,0.00,5,Rain,165
2013-5-6,80,74,68,66,64,61,88,74,48,30.03,29.96,29.89,19,7,6,17,11,,0.00,6,,168
2013-5-7,80,74,69,72,67,62,100,79,55,30.00,29.94,29.89,19,6,2,18,13,,1.34,5,Rain,166
2013-5-8,75,72,68,72,70,66,100,91,82,30.04,29.98,29.92,9,5,2,20,16,31,1.38,7,Rain,169
2013-5-9,75,72,70,73,70,68,100,90,78,30.08,30.02,29.98,16,5,2,18,14,31,0.59,6,Rain,173
2013-5-10,82,76,70,70,69,66,94,81,56,30.05,30.00,29.95,19,7,2,26,15,30,0.12,3,Rain,162
2013-5-11,81,75,69,70,68,63,95,81,60,30.05,30.00,29.95,16,5,2,28,14,40,0.47,5,Rain,158
2013-5-12,82,76,71,70,68,66,94,77,57,30.05,30.00,29.95,16,7,6,23,14,31,0.00,3,Rain,161
2013-5-13,82,76,69,69,67,64,94,72,49,30.03,29.96,29.89,19,7,6,17,12,,0.00,3,,160
2013-5-14,84,76,68,70,68,64,94,74,45,29.94,29.89,29.80,19,7,6,12,7,,0.00,4,,146
2013-5-15,84,76,68,70,69,68,94,79,57,29.96,29.90,29.86,19,7,6,13,5,,0.00,4,,127
2013-5-16,84,76,68,73,71,68,100,85,61,29.98,29.91,29.86,19,7,6,10,4,,0.00,3,,327
2013-5-17,80,76,71,73,68,64,100,76,54,30.04,29.97,29.92,19,7,6,18,10,,0.00,6,,164
2013-5-18,84,78,71,72,69,65,94,77,57,30.03,29.98,29.92,19,7,6,15,10,,0.03,6,Rain,155
2013-5-19,78,76,73,72,70,66,94,81,67,30.05,29.98,29.92,19,7,6,21,12,,0.00,6,Rain,164
2013-5-20,84,78,71,70,67,64,83,72,46,30.04,29.98,29.92,19,7,6,15,11,,0.02,5,Rain,158
2013-5-21,83,78,72,73,71,69,94,81,57,30.03,29.96,29.89,19,7,3,14,8,,0.01,5,Rain,130
2013-5-22,82,76,70,73,71,69,100,85,60,29.97,29.89,29.83,19,7,6,12,3,,0.00,4,Fog,337
2013-5-23,82,76,69,75,71,69,100,85,63,29.91,29.86,29.80,19,7,3,13,6,,0.00,5,Rain,318
2013-5-24,75,72,66,70,62,57,88,69,46,30.01,29.93,29.86,19,7,6,17,10,,0.00,6,Rain,166
2013-5-25,77,70,62,55,51,44,77,51,31,30.09,30.02,29.95,19,8,6,23,13,33,0.00,2,,163
2013-5-26,78,69,60,67,58,53,88,63,37,30.08,30.03,29.98,19,7,4,22,13,26,0.39,3,Rain,157
2013-5-27,78,73,68,68,65,61,100,77,51,30.10,30.05,30.01,19,6,4,26,14,32,0.00,4,Rain,163
2013-5-28,80,73,66,66,64,61,94,76,48,30.09,30.04,30.01,19,6,2,23,14,33,0.16,4,Rain,166
2013-5-29,80,74,67,68,65,63,88,72,54,30.08,30.03,29.98,19,7,3,24,13,29,0.08,4,Rain,168
2013-5-30,80,74,68,70,68,66,100,80,56,30.06,30.01,29.97,16,6,3,22,14,32,0.47,5,Rain,164
2013-5-31,81,75,69,70,67,64,100,82,55,30.07,30.02,29.98,16,6,3,25,16,34,0.28,5,Rain,160